Flag for Madagascar Weather past 2 weeks in Toamasina, Madagascar

Now
72 °F

Scattered showers. Partly cloudy.


Feels Like: 65 °F
Forecast: 67 / 81 °F
Wind: No wind

Location: Tamatave

Current Time: Oct 1, 2014 at 12:59:45 AM

Latest Report: Oct 1, 2014 at 12:00 AM


Visibility: N/A

Pressure: 30.04 "Hg

Humidity: 100%

Dew point: 72 °F

Location of ToamasinaLocation

Historic Weather in Toamasina — Graph

°F

Toamasina temperature yesterday

Maximum temperature yesterday: 82 °F (at 11:00 AM)
Minimum temperature yesterday: 64 °F (at 5:00 AM)
Average temperature yesterday: 75 °F

Past Weeks' High & Low Weather Summary

 TemperatureHumidityPressure
High82 °F (Sep 27, 12:00 PM)100% (Sep 16, 2:00 AM)30.18 "Hg (Sep 16, 2:00 AM)
Low61 °F (Sep 17, 4:00 AM)58% (Sep 30, 10:00 AM)30.01 "Hg (Sep 17, 3:00 PM)
Average73 °F83%30.10 "Hg
* Reported Sep 15 11:00 PM — Sep 30 11:00 PM, Toamasina, Weather by CustomWeather, © 2014

Note: Actual official high and low records may vary slightly from our data, if they occured in-between our weather recording intervals... More about our weather records

Advertising

Toamasina weather history for previous 24 hours

 ConditionsComfort  
Time TempWeatherWind HumidityBarometerVisibility
11:00 PM
Sep 30
72 °FScattered showers. Partly cloudy.5 mph88%30.04 "HgN/A
10:00 PM73 °FScattered showers. Partly cloudy.5 mph83%30.04 "HgN/A
9:00 PM73 °FScattered showers. Partly cloudy.5 mph83%30.04 "HgN/A
8:00 PM73 °FScattered showers. Passing clouds.5 mph78%30.04 "HgN/A
7:00 PM77 °FScattered showers. Passing clouds.7 mph79%30.04 "HgN/A
6:00 PM77 °FScattered showers. Passing clouds.7 mph74%30.04 "HgN/A
5:00 PM77 °FScattered showers. Broken clouds.12 mph69%30.01 "HgN/A
4:00 PM77 °FScattered showers. Broken clouds.12 mph79%30.01 "HgN/A
3:00 PM81 °FScattered showers. Partly sunny.12 mph66%30.01 "HgN/A
2:00 PM81 °FScattered clouds.12 mph66%30.01 "HgN/A
1:00 PM81 °FPassing clouds.12 mph66%30.04 "HgN/A
12:00 PM82 °FScattered clouds.12 mph62%30.07 "HgN/A
11:00 AM82 °FScattered clouds.9 mph58%30.07 "HgN/A
10:00 AM81 °FScattered clouds.12 mph58%30.09 "HgN/A
9:00 AM79 °FScattered clouds.7 mph65%30.09 "HgN/A
8:00 AM77 °FScattered clouds.5 mph74%30.09 "HgN/A
7:00 AM72 °FPassing clouds.No wind94%30.09 "HgN/A
6:00 AM66 °FPassing clouds.No wind94%30.07 "HgN/A
5:00 AM64 °FPassing clouds.No wind100%30.07 "HgN/A
4:00 AM66 °FPassing clouds.No wind94%30.07 "HgN/A
3:00 AM68 °FPassing clouds.No wind94%30.07 "HgN/A
2:00 AM70 °FPassing clouds.No wind94%30.07 "HgN/A
1:00 AM70 °FPassing clouds.No wind94%30.07 "HgN/A
12:00 AM70 °FPassing clouds.No wind94%30.09 "HgN/A
Weather by CustomWeather, © 2014

See weather overviewHow to use our weather pages